| time (UTC) | temp F | wind direction | speed knots | gust knots | rain 1hr in | rain 24hr in | rain mn in | humidity % | barometer mb |
| 20260509074521 | 62 | 192 | 0.9 | 2.6 | 0.00 | 0.00 | 0.00 | 40 | 1003.0 |
| 20260509073019 | 62 | 192 | 0.9 | 3.5 | 0.00 | 0.00 | 0.00 | 38 | 1003.1 |
| 20260509071517 | 62 | 192 | 1.7 | 3.5 | 0.00 | 0.00 | 0.00 | 38 | 1003.3 |
| 20260509070016 | 62 | 192 | 0.0 | 0.9 | 0.00 | 0.00 | 0.00 | 38 | 1003.3 |
| 20260509064512 | 62 | 192 | 0.0 | 2.6 | 0.00 | 0.00 | 0.00 | 37 | 1003.8 |
| 20260509063014 | 63 | 192 | 0.9 | 3.5 | 0.00 | 0.00 | 0.00 | 37 | 1004.1 |
| 20260509061511 | 63 | 192 | 0.0 | 2.6 | 0.00 | 0.00 | 0.00 | 36 | 1003.9 |
| 20260509060007 | 63 | 192 | 1.7 | 2.6 | 0.00 | 0.00 | 0.00 | 36 | 1003.9 |
| 20260509054506 | 63 | 192 | 0.9 | 4.3 | 0.00 | 0.00 | 0.00 | 35 | 1004.0 |
| 20260509053005 | 64 | 192 | 0.9 | 2.6 | 0.00 | 0.00 | 0.00 | 35 | 1003.9 |
| 20260509051504 | 64 | 192 | 0.9 | 3.5 | 0.00 | 0.00 | 0.00 | 35 | 1003.8 |
| 20260509050006 | 64 | 192 | 2.6 | 5.2 | 0.00 | 0.00 | 0.00 | 35 | 1004.0 |
| 20260509044502 | 64 | 193 | 1.7 | 4.3 | 0.00 | 0.00 | 0.00 | 35 | 1003.9 |
| 20260509043103 | 64 | 193 | 1.7 | 5.2 | 0.00 | 0.00 | 0.00 | 35 | 1004.0 |
| 20260509043001 | 64 | 193 | 1.7 | 5.2 | 0.00 | 0.00 | 0.00 | 34 | 1003.9 |
| 20260509041600 | 64 | 193 | 2.6 | 4.3 | 0.00 | 0.00 | 0.00 | 34 | 1003.9 |
| 20260509040058 | 64 | 193 | 2.6 | 5.2 | 0.00 | 0.00 | 0.00 | 34 | 1004.0 |
| 20260509034556 | 65 | 194 | 2.6 | 5.2 | 0.00 | 0.00 | 0.00 | 34 | 1004.1 |
| 20260509033055 | 65 | 194 | 1.7 | 4.3 | 0.00 | 0.00 | 0.00 | 34 | 1004.4 |
| 20260509031616 | 65 | 194 | 2.6 | 4.3 | 0.00 | 0.00 | 0.00 | 34 | 1004.4 |
| 20260509030051 | 65 | 194 | 2.6 | 5.2 | 0.00 | 0.00 | 0.00 | 34 | 1004.7 |
| 20260509024550 | 65 | 196 | 3.5 | 6.1 | 0.00 | 0.00 | 0.00 | 33 | 1004.8 |
| 20260509023056 | 65 | 204 | 1.7 | 3.5 | 0.00 | 0.00 | 0.00 | 33 | 1005.0 |
| 20260509021550 | 66 | 204 | 1.7 | 3.5 | 0.00 | 0.00 | 0.00 | 33 | 1005.0 |
| 20260509020049 | 66 | 205 | 1.7 | 4.3 | 0.00 | 0.00 | 0.00 | 32 | 1004.9 |
| 20260509014549 | 66 | 205 | 1.7 | 4.3 | 0.00 | 0.00 | 0.00 | 32 | 1004.8 |
| 20260509013049 | 66 | 207 | 2.6 | 6.1 | 0.00 | 0.00 | 0.00 | 31 | 1004.9 |
| 20260509011548 | 67 | 209 | 2.6 | 3.5 | 0.00 | 0.00 | 0.00 | 31 | 1004.8 |
| 20260509010046 | 67 | 209 | 2.6 | 6.1 | 0.00 | 0.00 | 0.00 | 30 | 1004.9 |
| 20260509004550 | 67 | 209 | 2.6 | 5.2 | 0.00 | 0.00 | 0.00 | 29 | 1004.8 |
| 20260509003045 | 68 | 211 | 4.3 | 7.8 | 0.00 | 0.00 | 0.00 | 28 | 1004.9 |
| 20260509001544 | 69 | 186 | 2.6 | 10.4 | 0.00 | 0.00 | 0.00 | 27 | 1004.8 |
| 20260509000053 | 70 | 217 | 5.2 | 10.4 | 0.00 | 0.00 | 0.00 | 26 | 1005.0 |
| 20260508234541 | 70 | 165 | 5.2 | 12.2 | 0.00 | 0.00 | 0.00 | 26 | 1005.0 |
| 20260508233041 | 71 | 240 | 7.0 | 11.3 | 0.00 | 0.00 | 0.00 | 25 | 1005.0 |
| 20260508231543 | 71 | 182 | 7.0 | 12.2 | 0.00 | 0.00 | 0.00 | 25 | 1005.0 |
| 20260508230039 | 71 | 225 | 7.8 | 16.5 | 0.00 | 0.00 | 0.00 | 25 | 1005.0 |
| 20260508224539 | 72 | 225 | 6.1 | 15.6 | 0.00 | 0.00 | 0.00 | 25 | 1005.3 |
| 20260508223039 | 72 | 188 | 9.6 | 16.5 | 0.00 | 0.00 | 0.00 | 24 | 1005.3 |
| 20260508221539 | 73 | 217 | 6.1 | 13.0 | 0.00 | 0.00 | 0.00 | 22 | 1005.0 |
| 20260508220042 | 73 | 224 | 2.6 | 15.6 | 0.00 | 0.00 | 0.00 | 23 | 1004.9 |
| 20260508214535 | 73 | 227 | 6.1 | 13.0 | 0.00 | 0.00 | 0.00 | 22 | 1004.8 |
| 20260508213044 | 74 | 225 | 7.0 | 10.4 | 0.00 | 0.00 | 0.00 | 21 | 1005.0 |
| 20260508211535 | 74 | 220 | 7.8 | 13.0 | 0.00 | 0.00 | 0.00 | 20 | 1005.0 |
| 20260508210033 | 74 | 210 | 4.3 | 10.4 | 0.00 | 0.00 | 0.00 | 21 | 1005.5 |
| 20260508204532 | 74 | 204 | 8.7 | 14.8 | 0.00 | 0.00 | 0.00 | 21 | 1005.7 |
| 20260508203034 | 74 | 173 | 6.1 | 14.8 | 0.00 | 0.00 | 0.00 | 20 | 1005.7 |
| 20260508201528 | 75 | 227 | 4.3 | 8.7 | 0.00 | 0.00 | 0.00 | 20 | 1006.0 |
| 20260508200031 | 75 | 226 | 6.1 | 14.8 | 0.00 | 0.00 | 0.00 | 21 | 1006.3 |
| 20260508194523 | 75 | 209 | 7.8 | 13.0 | 0.00 | 0.00 | 0.00 | 21 | 1006.6 |
| 20260508193021 | 75 | 167 | 5.2 | 13.0 | 0.00 | 0.00 | 0.00 | 20 | 1006.6 |
| 20260508191526 | 74 | 194 | 7.8 | 11.3 | 0.00 | 0.00 | 0.00 | 20 | 1007.0 |
| 20260508190019 | 74 | 171 | 7.0 | 15.6 | 0.00 | 0.00 | 0.00 | 20 | 1007.0 |
| 20260508184519 | 75 | 211 | 3.5 | 11.3 | 0.00 | 0.00 | 0.00 | 21 | 1007.0 |
| 20260508183016 | 73 | 161 | 7.8 | 15.6 | 0.00 | 0.00 | 0.00 | 21 | 1006.8 |
| 20260508181538 | 74 | 163 | 8.7 | 14.8 | 0.00 | 0.00 | 0.00 | 20 | 1007.2 |
| 20260508180011 | 73 | 153 | 6.1 | 13.0 | 0.00 | 0.00 | 0.00 | 20 | 1007.4 |
| 20260508174515 | 73 | 227 | 4.3 | 13.0 | 0.00 | 0.00 | 0.00 | 20 | 1007.7 |
| 20260508173004 | 73 | 180 | 5.2 | 13.0 | 0.00 | 0.00 | 0.00 | 21 | 1008.2 |
| 20260508171501 | 73 | 167 | 5.2 | 12.2 | 0.00 | 0.00 | 0.00 | 23 | 1008.6 |
| 20260508170059 | 73 | 203 | 6.1 | 13.0 | 0.00 | 0.00 | 0.00 | 23 | 1008.7 |
| 20260508164557 | 71 | 223 | 3.5 | 16.5 | 0.00 | 0.00 | 0.00 | 23 | 1009.2 |
| 20260508163051 | 71 | 249 | 7.0 | 13.9 | 0.00 | 0.00 | 0.00 | 23 | 1009.3 |
| 20260508161549 | 71 | 199 | 3.5 | 12.2 | 0.00 | 0.00 | 0.00 | 23 | 1009.6 |
| 20260508160044 | 70 | 219 | 5.2 | 12.2 | 0.00 | 0.00 | 0.00 | 24 | 1009.9 |
| 20260508154551 | 70 | 225 | 4.3 | 8.7 | 0.00 | 0.00 | 0.00 | 24 | 1010.2 |
| 20260508153038 | 68 | 203 | 6.1 | 11.3 | 0.00 | 0.00 | 0.00 | 25 | 1010.6 |
| 20260508151534 | 67 | 221 | 7.0 | 9.6 | 0.00 | 0.00 | 0.00 | 26 | 1010.8 |
| 20260508150030 | 66 | 248 | 5.2 | 10.4 | 0.00 | 0.00 | 0.00 | 29 | 1010.9 |
| 20260508144527 | 66 | 230 | 2.6 | 7.8 | 0.00 | 0.00 | 0.00 | 30 | 1011.0 |
| 20260508143029 | 64 | 204 | 3.5 | 7.8 | 0.00 | 0.00 | 0.00 | 31 | 1011.1 |
| 20260508141528 | 63 | 213 | 4.3 | 7.8 | 0.00 | 0.00 | 0.00 | 32 | 1011.0 |
| 20260508140015 | 62 | 209 | 2.6 | 7.8 | 0.00 | 0.00 | 0.00 | 33 | 1011.1 |
| 20260508134513 | 60 | 238 | 5.2 | 9.6 | 0.00 | 0.00 | 0.00 | 33 | 1011.3 |
| 20260508133010 | 60 | 219 | 3.5 | 7.8 | 0.00 | 0.00 | 0.00 | 34 | 1011.3 |
| 20260508131504 | 59 | 205 | 2.6 | 7.0 | 0.00 | 0.00 | 0.00 | 34 | 1011.0 |
| 20260508130059 | 58 | 208 | 3.5 | 7.8 | 0.00 | 0.00 | 0.00 | 36 | 1011.0 |
| 20260508124555 | 56 | 223 | 1.7 | 7.0 | 0.00 | 0.00 | 0.00 | 38 | 1010.9 |
| 20260508123051 | 54 | 281 | 1.7 | 6.1 | 0.00 | 0.00 | 0.00 | 41 | 1010.8 |
| 20260508121548 | 52 | 328 | 1.7 | 4.3 | 0.00 | 0.00 | 0.00 | 44 | 1010.7 |
| 20260508120049 | 50 | 329 | 0.9 | 3.5 | 0.00 | 0.00 | 0.00 | 46 | 1010.7 |
| 20260508114538 | 48 | 329 | 1.7 | 3.5 | 0.00 | 0.00 | 0.00 | 47 | 1010.6 |
| 20260508113035 | 47 | 329 | 0.9 | 3.5 | 0.00 | 0.00 | 0.00 | 48 | 1010.4 |
| 20260508111549 | 46 | 329 | 0.9 | 3.5 | 0.00 | 0.00 | 0.00 | 48 | 1010.3 |
| 20260508110030 | 46 | 329 | 0.9 | 2.6 | 0.00 | 0.00 | 0.00 | 48 | 1010.3 |
| 20260508104529 | 46 | 329 | 1.7 | 3.5 | 0.00 | 0.00 | 0.00 | 48 | 1010.2 |
| 20260508103033 | 46 | 329 | 1.7 | 4.3 | 0.00 | 0.00 | 0.00 | 48 | 1010.1 |
| 20260508101537 | 46 | 329 | 1.7 | 3.5 | 0.00 | 0.00 | 0.00 | 48 | 1010.1 |
| 20260508100028 | 46 | 329 | 1.7 | 4.3 | 0.00 | 0.00 | 0.00 | 48 | 1010.1 |
| 20260508094523 | 46 | 330 | 1.7 | 3.5 | 0.00 | 0.00 | 0.00 | 50 | 1010.3 |
| 20260508093023 | 46 | 330 | 1.7 | 2.6 | 0.00 | 0.00 | 0.00 | 50 | 1010.2 |
| 20260508091522 | 46 | 330 | 1.7 | 3.5 | 0.00 | 0.00 | 0.00 | 50 | 1010.3 |
| 20260508090021 | 46 | 330 | 1.7 | 3.5 | 0.00 | 0.00 | 0.00 | 50 | 1010.2 |
| 20260508084519 | 46 | 330 | 0.0 | 0.0 | 0.00 | 0.00 | 0.00 | 51 | 1010.2 |
| 20260508083018 | 46 | 330 | 0.0 | 0.0 | 0.00 | 0.00 | 0.00 | 51 | 1010.2 |
| 20260508081517 | 46 | 330 | 0.0 | 0.0 | 0.00 | 0.00 | 0.00 | 51 | 1010.2 |
| 20260508080015 | 46 | 330 | 0.0 | 0.0 | 0.00 | 0.00 | 0.00 | 51 | 1010.2 |